Pittsburgh Allegheny Co., PA

12:33 AM EDT on October 22, 2019 (GMT -0400)
Allegheny County

Weather History for KAGC - September, 2019

Change the Weather History Date:

Thursday, September 19, 2019

  Actual Average Record
Temperature  
Mean Temperature 64 °F -  
Max Temperature 75 °F 76 °F 87 °F (1991)
Min Temperature 52 °F 56 °F 45 °F (2004)
Degree Days  
Heating Degree Days 2    
Growing Degree Days 14 (Base 50)    
Moisture  
Dew Point 48 °F    
Average Humidity 57    
Maximum Humidity 77    
Minimum Humidity 40    
Precipitation  
Precipitation 0.00 in - - ()
Sea Level Pressure  
Sea Level Pressure 30.24 in    
Wind  
Wind Speed 5 mph (ESE)    
Max Wind Speed 10 mph    
Max Gust Speed 17 mph    
Visibility 10 miles    
Events      
Averages and records for this station are not official NWS values.
T = Trace of Precipitation, MM = Missing Value Source: NWS Daily Summary

Daily Weather History Graph

Daily Weather History Graph

Search for Another Location

Airport or City:

Astronomy

Sep. 19, 2019 Rise Set
Actual Time 7:04 AM EDT 7:22 PM EDT
Civil Twilight 6:36 AM EDT 7:49 PM EDT
Nautical Twilight 6:04 AM EDT 8:21 PM EDT
Astronomical Twilight 5:32 AM EDT 8:53 PM EDT
Moon 10:29 PM EDT (9/19) 12:06 PM EDT (9/19)
Length of Visible Light 13h 12m
Length of Day
12h 18m
Waning Gibbous, 74% of the Moon is Illuminated
Sep 19
Waning Gibbous
Sep 21
Last Quarter
Sep 28
New
Oct 5
First Quarter
Oct 13
Full

Hourly Weather History & Observations

Time (EDT) Temp. Dew Point Humidity Pressure Visibility Wind Dir Wind Speed Gust Speed Precip Events Conditions
12:53 AM 60.1 °F 42.1 °F 51% 30.22 in 10.0 mi Calm Calm - N/A   Clear
1:53 AM 59.0 °F 43.0 °F 55% 30.23 in 10.0 mi ESE 4.6 mph - N/A   Clear
2:53 AM 55.0 °F 43.0 °F 64% 30.23 in 10.0 mi East 6.9 mph - N/A   Clear
3:53 AM 55.0 °F 43.0 °F 64% 30.23 in 10.0 mi East 8.1 mph - N/A   Clear
4:53 AM 54.0 °F 44.1 °F 69% 30.22 in 10.0 mi East 8.1 mph - N/A   Clear
5:53 AM 54.0 °F 44.1 °F 69% 30.23 in 10.0 mi East 8.1 mph - N/A   Clear
6:53 AM 52.0 °F 45.0 °F 77% 30.25 in 10.0 mi ESE 4.6 mph - N/A   Clear
7:53 AM 54.0 °F 46.0 °F 75% 30.27 in 10.0 mi ESE 5.8 mph - N/A   Clear
8:53 AM 57.9 °F 48.0 °F 70% 30.27 in 10.0 mi ESE 5.8 mph - N/A   Clear
9:53 AM 63.0 °F 50.0 °F 63% 30.28 in 10.0 mi SE 5.8 mph 16.1 mph N/A   Clear
10:53 AM 66.0 °F 50.0 °F 56% 30.28 in 10.0 mi SE 10.4 mph 17.3 mph N/A   Clear
11:53 AM 69.1 °F 51.1 °F 53% 30.28 in 10.0 mi South 8.1 mph - N/A   Clear
12:53 PM 71.1 °F 51.1 °F 49% 30.26 in 10.0 mi ESE 5.8 mph - N/A   Clear
1:53 PM 72.0 °F 48.9 °F 44% 30.26 in 10.0 mi Variable 5.8 mph - N/A   Clear
2:53 PM 73.9 °F 48.9 °F 41% 30.24 in 10.0 mi Variable 6.9 mph - N/A   Clear
3:53 PM 75.0 °F 48.9 °F 40% 30.22 in 10.0 mi East 6.9 mph - N/A   Clear
4:53 PM 75.0 °F 48.9 °F 40% 30.21 in 10.0 mi Variable 5.8 mph - N/A   Clear
5:53 PM 73.9 °F 48.9 °F 41% 30.21 in 10.0 mi SSE 6.9 mph - N/A   Clear
6:53 PM 72.0 °F 48.9 °F 44% 30.20 in 10.0 mi ESE 5.8 mph - N/A   Clear
7:53 PM 68.0 °F 48.9 °F 50% 30.21 in 10.0 mi East 5.8 mph - N/A   Clear
8:53 PM 66.0 °F 51.1 °F 59% 30.21 in 10.0 mi SE 5.8 mph - N/A   Clear
9:53 PM 64.9 °F 50.0 °F 58% 30.21 in 10.0 mi ESE 5.8 mph - N/A   Clear
10:53 PM 62.1 °F 50.0 °F 65% 30.22 in 10.0 mi ESE 4.6 mph - N/A   Clear
11:53 PM 61.0 °F 51.1 °F 70% 30.22 in 10.0 mi SE 5.8 mph - N/A   Clear